• în Republica Moldova
  • Lista ţărilor
  • Pe 7 zile
  • Temperatura apei
  • Hartă satelitară
  • Meteo pe hartă
  • Widget-uri
  • user-avatar
    Intrare

    Meteo pe oră la Perth

    Astăzi, 10 Decembrie, Luni

    Timp Temperatura Precipitaţii Vânt Presiune Umiditate
    00:00 +23°C° 0 mm 5 m/s 757 mmHg 53%
    01:00 +23°C° 0 mm 5 m/s 757 mmHg 55%
    02:00 +21°C° 0 mm 4 m/s 757 mmHg 60%
    03:00 +21°C° 0 mm 4 m/s 756 mmHg 61%
    04:00 +21°C° 0 mm 4 m/s 756 mmHg 62%
    05:00 +20°C° 0 mm 4 m/s 756 mmHg 63%
    06:00 +22°C° 0 mm 4 m/s 756 mmHg 58%
    07:00 +25°C° 0 mm 3 m/s 756 mmHg 52%
    08:00 +25°C° 0 mm 2 m/s 757 mmHg 48%
    09:00 +27°C° 0 mm 2 m/s 756 mmHg 44%
    10:00 +29°C° 0 mm 3 m/s 756 mmHg 40%
    11:00 +31°C° 0 mm 3 m/s 756 mmHg 36%
    12:00 +33°C° 0 mm 4 m/s 755 mmHg 35%
    13:00 +33°C° 0 mm 5 m/s 755 mmHg 34%
    14:00 +33°C° 0 mm 5 m/s 755 mmHg 35%
    15:00 +32°C° 0 mm 6 m/s 755 mmHg 39%
    16:00 +30°C° 0 mm 6 m/s 754 mmHg 43%
    17:00 +29°C° 0 mm 7 m/s 754 mmHg 46%
    18:00 +27°C° 0 mm 7 m/s 755 mmHg 54%
    19:00 +24°C° 0 mm 7 m/s 755 mmHg 62%
    20:00 +21°C° 0 mm 5 m/s 756 mmHg 70%
    21:00 +21°C° 0 mm 6 m/s 756 mmHg 72%
    22:00 +20°C° 0 mm 6 m/s 756 mmHg 74%
    23:00 +20°C° 0 mm 6 m/s 756 mmHg 75%

    Mâine, 11 Decembrie, Marţi

    Timp Temperatura Precipitaţii Vânt Presiune Umiditate
    00:00 +19°C° 0 mm 5 m/s 756 mmHg 77%
    01:00 +19°C° 0 mm 5 m/s 756 mmHg 79%
    02:00 +17°C° 0 mm 5 m/s 757 mmHg 80%
    03:00 +17°C° 0 mm 5 m/s 757 mmHg 82%
    04:00 +17°C° 0 mm 4 m/s 757 mmHg 84%
    05:00 +17°C° 0 mm 4 m/s 757 mmHg 87%
    06:00 +18°C° 0 mm 4 m/s 757 mmHg 79%
    07:00 +20°C° 0 mm 4 m/s 757 mmHg 71%
    08:00 +21°C° 0 mm 4 m/s 758 mmHg 63%
    09:00 +23°C° 0 mm 5 m/s 758 mmHg 56%
    10:00 +25°C° 0 mm 5 m/s 757 mmHg 48%
    11:00 +27°C° 0 mm 5 m/s 757 mmHg 41%
    12:00 +27°C° 0 mm 6 m/s 757 mmHg 42%
    13:00 +27°C° 0 mm 6 m/s 757 mmHg 42%
    14:00 +27°C° 0 mm 7 m/s 757 mmHg 43%
    15:00 +26°C° 0 mm 6 m/s 757 mmHg 46%
    16:00 +24°C° 0 mm 6 m/s 757 mmHg 49%
    17:00 +23°C° 0 mm 6 m/s 757 mmHg 52%
    18:00 +22°C° 0 mm 6 m/s 758 mmHg 59%
    19:00 +20°C° 0 mm 5 m/s 758 mmHg 67%
    20:00 +19°C° 0 mm 4 m/s 759 mmHg 74%
    21:00 +19°C° 0 mm 4 m/s 759 mmHg 77%
    22:00 +18°C° 0 mm 4 m/s 759 mmHg 81%
    23:00 +18°C° 0 mm 3 m/s 760 mmHg 84%

    Poimâine, 12 Decembrie, Miercuri

    Timp Temperatura Precipitaţii Vânt Presiune Umiditate
    00:00 +18°C° 0 mm 3 m/s 759 mmHg 86%
    01:00 +18°C° 0 mm 3 m/s 759 mmHg 88%
    02:00 +17°C° 0 mm 3 m/s 759 mmHg 90%
    03:00 +17°C° 0 mm 3 m/s 759 mmHg 90%
    04:00 +17°C° 0 mm 3 m/s 759 mmHg 91%
    05:00 +17°C° 0 mm 3 m/s 760 mmHg 92%
    06:00 +18°C° 0 mm 3 m/s 760 mmHg 82%
    07:00 +20°C° 0 mm 3 m/s 760 mmHg 73%
    08:00 +22°C° 0 mm 3 m/s 761 mmHg 63%
    09:00 +25°C° 0 mm 3 m/s 760 mmHg 56%
    10:00 +27°C° 0 mm 3 m/s 760 mmHg 48%
    11:00 +28°C° 0 mm 3 m/s 760 mmHg 41%
    12:00 +29°C° 0 mm 4 m/s 760 mmHg 39%
    13:00 +30°C° 0 mm 5 m/s 759 mmHg 38%
    14:00 +32°C° 0 mm 5 m/s 759 mmHg 36%
    15:00 +30°C° 0 mm 5 m/s 759 mmHg 37%
    16:00 +30°C° 0 mm 6 m/s 759 mmHg 39%
    17:00 +29°C° 0 mm 6 m/s 759 mmHg 40%
    18:00 +28°C° 0 mm 6 m/s 759 mmHg 43%
    19:00 +26°C° 0 mm 5 m/s 759 mmHg 47%
    20:00 +25°C° 0 mm 5 m/s 760 mmHg 50%
    21:00 +23°C° 0 mm 5 m/s 760 mmHg 51%
    22:00 +23°C° 0 mm 5 m/s 760 mmHg 51%
    23:00 +22°C° 0 mm 5 m/s 761 mmHg 51%

    13 Decembrie, Joi

    Timp Temperatura Precipitaţii Vânt Presiune Umiditate
    00:00 +21°C° 0 mm 5 m/s 761 mmHg 54%
    01:00 +20°C° 0 mm 6 m/s 760 mmHg 57%
    02:00 +19°C° 0 mm 6 m/s 760 mmHg 60%
    03:00 +19°C° 0 mm 6 m/s 760 mmHg 60%
    04:00 +17°C° 0 mm 6 m/s 760 mmHg 61%
    05:00 +17°C° 0 mm 6 m/s 761 mmHg 61%
    06:00 +19°C° 0 mm 6 m/s 761 mmHg 57%
    07:00 +21°C° 0 mm 6 m/s 761 mmHg 52%
    08:00 +22°C° 0 mm 6 m/s 761 mmHg 47%
    09:00 +26°C° 0 mm 5 m/s 761 mmHg 42%
    10:00 +29°C° 0 mm 4 m/s 760 mmHg 36%
    11:00 +31°C° 0 mm 3 m/s 760 mmHg 31%
    12:00 +34°C° 0 mm 4 m/s 759 mmHg 28%
    13:00 +36°C° 0 mm 4 m/s 759 mmHg 26%
    14:00 +37°C° 0 mm 4 m/s 758 mmHg 24%
    15:00 +37°C° 0 mm 4 m/s 757 mmHg 25%
    16:00 +36°C° 0 mm 5 m/s 757 mmHg 26%
    17:00 +36°C° 0 mm 5 m/s 757 mmHg 26%
    18:00 +34°C° 0 mm 5 m/s 757 mmHg 29%
    19:00 +32°C° 0 mm 5 m/s 757 mmHg 32%
    20:00 +29°C° 0 mm 5 m/s 757 mmHg 35%
    21:00 +28°C° 0 mm 5 m/s 756 mmHg 35%
    22:00 +28°C° 0 mm 5 m/s 756 mmHg 35%
    23:00 +27°C° 0 mm 4 m/s 756 mmHg 36%

    14 Decembrie, Vineri

    Timp Temperatura Precipitaţii Vânt Presiune Umiditate
    00:00 +27°C° 0 mm 4 m/s 756 mmHg 36%
    01:00 +27°C° 0 mm 4 m/s 756 mmHg 36%
    02:00 +27°C° 0 mm 4 m/s 755 mmHg 36%
    03:00 +27°C° 0 mm 4 m/s 755 mmHg 35%
    04:00 +27°C° 0 mm 4 m/s 755 mmHg 35%
    05:00 +26°C° 0 mm 3 m/s 755 mmHg 34%
    06:00 +28°C° 0.1 mm 4 m/s 756 mmHg 30%
    07:00 +30°C° 0.1 mm 4 m/s 756 mmHg 27%
    08:00 +32°C° 0.1 mm 5 m/s 756 mmHg 23%
    09:00 +34°C° 0 mm 4 m/s 756 mmHg 22%
    10:00 +36°C° 0 mm 4 m/s 756 mmHg 21%
    11:00 +38°C° 0 mm 4 m/s 756 mmHg 20%
    12:00 +38°C° 0.1 mm 4 m/s 755 mmHg 20%
    13:00 +40°C° 0.1 mm 4 m/s 754 mmHg 21%
    14:00 +40°C° 0.1 mm 4 m/s 754 mmHg 22%
    15:00 +40°C° 0.1 mm 4 m/s 753 mmHg 23%
    16:00 +40°C° 0.1 mm 4 m/s 752 mmHg 23%
    17:00 +39°C° 0.1 mm 5 m/s 752 mmHg 24%
    18:00 +36°C° 0.2 mm 5 m/s 752 mmHg 28%
    19:00 +34°C° 0.2 mm 5 m/s 752 mmHg 32%
    20:00 +30°C° 0.2 mm 5 m/s 752 mmHg 36%
    21:00 +29°C° 0.2 mm 5 m/s 752 mmHg 40%
    22:00 +28°C° 0.2 mm 5 m/s 752 mmHg 43%
    23:00 +27°C° 0.2 mm 5 m/s 752 mmHg 47%

    15 Decembrie, Sâmbătă

    Timp Temperatura Precipitaţii Vânt Presiune Umiditate
    00:00 +27°C° 0.1 mm 5 m/s 751 mmHg 50%
    01:00 +26°C° 0.1 mm 5 m/s 751 mmHg 52%
    02:00 +26°C° 0.1 mm 5 m/s 750 mmHg 55%
    03:00 +26°C° 0 mm 5 m/s 750 mmHg 52%
    04:00 +26°C° 0 mm 5 m/s 750 mmHg 49%
    05:00 +26°C° 0 mm 5 m/s 750 mmHg 46%
    06:00 +28°C° 0 mm 5 m/s 751 mmHg 40%
    07:00 +30°C° 0 mm 5 m/s 751 mmHg 35%
    08:00 +33°C° 0 mm 6 m/s 751 mmHg 29%
    09:00 +34°C° 0 mm 5 m/s 751 mmHg 26%
    10:00 +36°C° 0 mm 5 m/s 750 mmHg 23%
    11:00 +39°C° 0 mm 5 m/s 750 mmHg 21%
    12:00 +39°C° 0 mm 6 m/s 750 mmHg 23%
    13:00 +39°C° 0 mm 8 m/s 749 mmHg 26%
    14:00 +38°C° 0 mm 9 m/s 749 mmHg 28%
    15:00 +37°C° 0 mm 10 m/s 749 mmHg 33%
    16:00 +34°C° 0 mm 10 m/s 749 mmHg 37%
    17:00 +32°C° 0 mm 11 m/s 750 mmHg 41%
    18:00 +31°C° 0 mm 10 m/s 751 mmHg 47%
    19:00 +28°C° 0 mm 9 m/s 752 mmHg 52%
    20:00 +26°C° 0 mm 9 m/s 753 mmHg 58%
    21:00 +24°C° 0 mm 8 m/s 753 mmHg 61%
    22:00 +23°C° 0 mm 8 m/s 754 mmHg 65%
    23:00 +22°C° 0 mm 7 m/s 754 mmHg 68%
    Arată mai mult